Location: Boone Canyon
(38.3180°N, 119.2504°W)
Time: 18:19:17
(UTC+00:00)

Cosmos 1980 Rocket - Pass Details

Date: 18 September 2020
Orbit: 831 x 848 km, 71.0° (Epoch: 19 October)

Event Time Altitude Azimuth Distance (km) Brightness Sun altitude
Exits shadow 13:01:00 10° 274° (W) 2,471 4.0 -8.8°
Reaches altitude 10° 13:01:01 10° 274° (W) 2,468 4.0 -8.8°
Maximum altitude 13:04:14 15° 309° (NW) 2,117 3.9 -8.2°
Drops below altitude 10° 13:07:28 10° 344° (NNW) 2,469 4.6 -7.5°
Sets 13:11:03 0° 7° (N) 3,404 5.5 -6.8°
